Flag for U.S.A. Weather past 2 weeks in Evansville, Indiana, U.S.A.

Now
63 °F

Overcast.


Feels Like: 63 °F
Forecast: 55 / 69 °F
Wind: 7 mph from Northeast

Location: Evansville Regional Airport

Current Time: Sep 16, 2014 at 12:41:03 PM

Latest Report: Sep 16, 2014 at 11:54 AM


Visibility: 10 mi

Pressure: 30.17 "Hg

Humidity: 70%

Dew point: 53 °F

Location of EvansvilleLocation

Historic Weather in Evansville — Graph

°F

Evansville temperature yesterday

Maximum temperature yesterday: 76 °F (at 2:54 PM)
Minimum temperature yesterday: 51 °F (at 4:54 AM)
Average temperature yesterday: 65 °F

Past Weeks' High & Low Weather Summary

 TemperatureHumidityPressure
High91 °F (Sep 5, 1:54 PM)96% (Sep 2, 6:54 AM)30.35 "Hg (Sep 2, 6:54 AM)
Low49 °F (Sep 14, 1:54 AM)32% (Sep 8, 2:54 PM)29.74 "Hg (Sep 10, 5:54 PM)
Average70 °F74%30.07 "Hg
* Reported Sep 1 10:54 AM — Sep 16 10:54 AM, Evansville, Weather by CustomWeather, © 2014

Note: Actual official high and low records may vary slightly from our data, if they occured in-between our weather recording intervals... More about our weather records

Advertising

Evansville weather history for previous 24 hours

 ConditionsComfort  
Time TempWeatherWind HumidityBarometerVisibility
10:54 AM
Sep 16
61 °FMostly cloudy.8 mph75%30.18 "Hg8 mi
9:54 AM61 °FFog.9 mph78%30.18 "Hg6 mi
8:54 AM59 °FFog.8 mph87%30.18 "Hg6 mi
7:54 AM59 °FMostly cloudy.9 mph87%30.17 "Hg10 mi
7:04 AM59 °FLow clouds.7 mph87%30.17 "Hg7 mi
5:54 AM60 °FLow clouds.9 mph86%30.15 "Hg10 mi
4:54 AM60 °FLow clouds.10 mph86%30.13 "Hg10 mi
3:54 AM61 °FLow clouds.9 mph87%30.13 "Hg10 mi
2:54 AM62 °FMostly cloudy.8 mph90%30.11 "Hg7 mi
1:54 AM63 °FLow clouds.14 mph90%30.10 "Hg7 mi
12:54 AM65 °FMostly cloudy.9 mph91%30.08 "Hg10 mi
12:04 AM66 °FLight rain. Fog.5 mph87%30.09 "Hg6 mi
11:54 PM
Sep 15
67 °FMostly cloudy.5 mph85%30.08 "Hg10 mi
10:54 PM70 °FOvercast.No wind73%30.08 "Hg10 mi
9:54 PM70 °FOvercast.7 mph73%30.06 "Hg10 mi
8:54 PM71 °FMostly cloudy.7 mph68%30.05 "Hg10 mi
7:54 PM72 °FMostly cloudy.8 mph61%30.06 "Hg10 mi
6:54 PM73 °FMostly cloudy.5 mph59%30.05 "Hg10 mi
5:54 PM74 °FMostly cloudy.7 mph53%30.05 "Hg10 mi
4:54 PM75 °FOvercast.7 mph52%30.06 "Hg10 mi
3:54 PM76 °FOvercast.5 mph48%30.07 "Hg10 mi
2:54 PM76 °FPartly sunny.5 mph47%30.09 "Hg10 mi
1:54 PM75 °FPassing clouds.6 mph50%30.11 "Hg10 mi
12:54 PM73 °FSunny.5 mph51%30.13 "Hg10 mi
Weather by CustomWeather, © 2014

See weather overviewHow to use our weather pages